| time (UTC) | temp F | wind direction | speed MPH | gust MPH | rain 1hr in | rain 24hr in | rain mn in | humidity % | barometer mb |
| 20260507141516 | 60 | 23 | 3.0 | 6.0 | 0.00 | 0.04 | 0.00 | 79 | 1019.3 |
| 20260507140536 | 58 | 45 | 2.0 | 5.0 | 0.00 | 0.04 | 0.00 | 82 | 1019.4 |
| 20260507135516 | 57 | 45 | 1.0 | 3.0 | 0.00 | 0.04 | 0.00 | 84 | 1019.4 |
| 20260507134500 | 56 | 45 | 1.0 | 4.0 | 0.00 | 0.04 | 0.00 | 89 | 1019.5 |
| 20260507133516 | 54 | 45 | 2.0 | 4.0 | 0.00 | 0.04 | 0.00 | 89 | 1019.5 |
| 20260507132517 | 54 | 45 | 1.0 | 2.0 | 0.00 | 0.04 | 0.00 | 90 | 1019.7 |
| 20260507131516 | 53 | 45 | 1.0 | 2.0 | 0.00 | 0.04 | 0.00 | 91 | 1019.6 |
| 20260507130516 | 0 | 0.0 | 0.0 | 0.00 | 0.04 | 0.00 | |||
| 20260507125516 | 52 | 0.0 | 0.0 | 0.00 | 0.04 | 0.00 | 91 | 1019.3 | |
| 20260507125028 | 52 | 45 | 1.0 | 2.0 | 0.00 | 0.04 | 0.00 | 91 | 1019.3 |
| 20260507124516 | 52 | 0.0 | 2.0 | 0.00 | 0.04 | 0.00 | 92 | 1019.3 | |
| 20260507123517 | 51 | 0.0 | 1.0 | 0.00 | 0.04 | 0.00 | 92 | 1019.0 | |
| 20260507122517 | 50 | 0.0 | 0.0 | 0.00 | 0.04 | 0.00 | 92 | 1019.0 | |
| 20260507121516 | 50 | 0.0 | 0.0 | 0.00 | 0.04 | 0.00 | 91 | 1019.0 | |
| 20260507120517 | 50 | 0.0 | 0.0 | 0.00 | 0.04 | 0.00 | 91 | 1018.7 | |
| 20260507115516 | 50 | 0.0 | 0.0 | 0.00 | 0.04 | 0.00 | 91 | 1018.5 | |
| 20260507114537 | 50 | 0.0 | 0.0 | 0.00 | 0.04 | 0.00 | 91 | 1018.5 | |
| 20260507113516 | 50 | 0.0 | 0.0 | 0.00 | 0.04 | 0.00 | 91 | 1018.4 | |
| 20260507112516 | 50 | 0.0 | 0.0 | 0.00 | 0.04 | 0.00 | 90 | 1018.3 | |
| 20260507111516 | 50 | 0.0 | 3.0 | 0.00 | 0.04 | 0.00 | 90 | 1018.5 | |
| 20260507110516 | 50 | 0.0 | 1.0 | 0.00 | 0.04 | 0.00 | 90 | 1018.6 | |
| 20260507105516 | 50 | 0.0 | 1.0 | 0.00 | 0.04 | 0.00 | 90 | 1018.6 | |
| 20260507104517 | 50 | 0.0 | 2.0 | 0.00 | 0.04 | 0.00 | 90 | 1018.3 | |
| 20260507103516 | 50 | 0.0 | 1.0 | 0.00 | 0.04 | 0.00 | 90 | 1018.3 | |
| 20260507102516 | 50 | 0.0 | 0.0 | 0.00 | 0.04 | 0.00 | 89 | 1017.9 | |
| 20260507101536 | 51 | 0.0 | 0.0 | 0.00 | 0.04 | 0.00 | 89 | 1017.6 | |
| 20260507100516 | 51 | 0.0 | 1.0 | 0.00 | 0.04 | 0.00 | 89 | 1017.5 | |
| 20260507095537 | 51 | 0.0 | 0.0 | 0.00 | 0.04 | 0.00 | 89 | 1017.4 | |
| 20260507094516 | 51 | 0.0 | 0.0 | 0.00 | 0.04 | 0.00 | 88 | 1017.1 | |
| 20260507093516 | 51 | 0.0 | 0.0 | 0.00 | 0.04 | 0.00 | 88 | 1017.0 | |
| 20260507092516 | 52 | 0.0 | 0.0 | 0.00 | 0.04 | 0.00 | 87 | 1016.7 | |
| 20260507091557 | 52 | 0.0 | 2.0 | 0.00 | 0.04 | 0.00 | 87 | 1016.7 | |
| 20260507090516 | 52 | 45 | 1.0 | 2.0 | 0.00 | 0.04 | 0.00 | 87 | 1016.4 |
| 20260507085516 | 52 | 0.0 | 0.0 | 0.00 | 0.04 | 0.00 | 86 | 1016.7 | |
| 20260507084536 | 53 | 0.0 | 0.0 | 0.00 | 0.04 | 0.00 | 86 | 1016.9 | |
| 20260507083517 | 53 | 0.0 | 0.0 | 0.00 | 0.04 | 0.00 | 85 | 1016.9 | |
| 20260507082517 | 53 | 0.0 | 2.0 | 0.00 | 0.04 | 0.00 | 85 | 1016.9 | |
| 20260507081516 | 54 | 0.0 | 2.0 | 0.00 | 0.04 | 0.00 | 85 | 1016.9 | |
| 20260507080536 | 54 | 0.0 | 1.0 | 0.00 | 0.04 | 0.00 | 84 | 1016.8 | |
| 20260507075516 | 54 | 45 | 1.0 | 3.0 | 0.00 | 0.04 | 0.00 | 85 | 1016.6 |
| 20260507074516 | 54 | 45 | 2.0 | 4.0 | 0.00 | 0.04 | 0.00 | 85 | 1016.4 |
| 20260507073516 | 54 | 45 | 1.0 | 4.0 | 0.00 | 0.04 | 0.00 | 85 | 1016.4 |
| 20260507072516 | 54 | 45 | 1.0 | 3.0 | 0.00 | 0.04 | 0.00 | 85 | 1016.3 |
| 20260507071516 | 54 | 45 | 2.0 | 3.0 | 0.00 | 0.04 | 0.00 | 85 | 1016.3 |
| 20260507070516 | 54 | 45 | 1.0 | 3.0 | 0.00 | 0.04 | 0.00 | 85 | 1016.2 |
| 20260507065516 | 54 | 45 | 1.0 | 4.0 | 0.00 | 0.04 | 0.00 | 84 | 1016.3 |
| 20260507064516 | 54 | 45 | 1.0 | 3.0 | 0.00 | 0.04 | 0.00 | 84 | 1016.3 |
| 20260507063517 | 55 | 45 | 1.0 | 2.0 | 0.00 | 0.04 | 0.00 | 84 | 1016.3 |
| 20260507062517 | 55 | 45 | 1.0 | 2.0 | 0.00 | 0.04 | 0.00 | 84 | 1016.3 |
| 20260507061517 | 55 | 0.0 | 1.0 | 0.00 | 0.04 | 0.00 | 83 | 1015.9 | |
| 20260507060516 | 55 | 0.0 | 1.0 | 0.00 | 0.04 | 0.00 | 83 | 1015.9 | |
| 20260507055517 | 55 | 0.0 | 1.0 | 0.00 | 0.04 | 0.00 | 82 | 1015.9 | |
| 20260507054516 | 56 | 45 | 1.0 | 2.0 | 0.00 | 0.04 | 0.00 | 81 | 1015.8 |
| 20260507053517 | 56 | 45 | 1.0 | 2.0 | 0.00 | 0.04 | 0.00 | 80 | 1015.8 |
| 20260507052514 | 57 | 45 | 1.0 | 2.0 | 0.00 | 0.04 | 0.00 | 80 | 1015.7 |
| 20260507051517 | 57 | 45 | 1.0 | 3.0 | 0.00 | 0.04 | 0.00 | 79 | 1015.6 |
| 20260507050516 | 57 | 45 | 1.0 | 3.0 | 0.00 | 0.04 | 0.00 | 79 | 1015.6 |
| 20260507045517 | 57 | 45 | 1.0 | 3.0 | 0.00 | 0.04 | 0.04 | 78 | 1015.8 |
| 20260507044517 | 58 | 45 | 2.0 | 7.0 | 0.00 | 0.04 | 0.04 | 77 | 1015.8 |
| 20260507043537 | 58 | 45 | 2.0 | 4.0 | 0.00 | 0.04 | 0.04 | 77 | 1015.8 |
| 20260507042517 | 59 | 45 | 2.0 | 4.0 | 0.00 | 0.04 | 0.04 | 76 | 1016.1 |
| 20260507041517 | 59 | 45 | 1.0 | 3.0 | 0.00 | 0.04 | 0.04 | 75 | 1016.0 |
| 20260507040517 | 59 | 45 | 3.0 | 5.0 | 0.00 | 0.04 | 0.04 | 75 | 1016.0 |
| 20260507035517 | 59 | 45 | 3.0 | 7.0 | 0.00 | 0.04 | 0.04 | 74 | 1016.2 |
| 20260507034517 | 60 | 45 | 2.0 | 6.0 | 0.00 | 0.04 | 0.04 | 75 | 1016.2 |
| 20260507033517 | 60 | 45 | 2.0 | 6.0 | 0.00 | 0.04 | 0.04 | 75 | 1016.2 |
| 20260507032537 | 60 | 45 | 2.0 | 6.0 | 0.00 | 0.04 | 0.04 | 75 | 1016.1 |
| 20260507031558 | 60 | 45 | 3.0 | 8.0 | 0.00 | 0.04 | 0.04 | 74 | 1015.9 |
| 20260507031017 | 60 | 45 | 3.0 | 7.0 | 0.00 | 0.04 | 0.04 | 74 | 1016.0 |
| 20260507030017 | 60 | 45 | 3.0 | 9.0 | 0.00 | 0.04 | 0.04 | 74 | 1015.9 |
| 20260507025017 | 61 | 45 | 4.0 | 11.0 | 0.00 | 0.04 | 0.04 | 74 | 1015.7 |
| 20260507024017 | 61 | 45 | 4.0 | 10.0 | 0.00 | 0.04 | 0.04 | 74 | 1015.5 |
| 20260507023017 | 61 | 45 | 4.0 | 10.0 | 0.00 | 0.04 | 0.04 | 74 | 1015.3 |
| 20260507022057 | 62 | 45 | 4.0 | 10.0 | 0.00 | 0.04 | 0.04 | 74 | 1014.9 |
| 20260507021017 | 62 | 45 | 3.0 | 8.0 | 0.00 | 0.04 | 0.04 | 75 | 1014.9 |
| 20260507020017 | 62 | 45 | 4.0 | 9.0 | 0.00 | 0.04 | 0.04 | 75 | 1014.7 |
| 20260507015017 | 62 | 45 | 2.0 | 6.0 | 0.00 | 0.04 | 0.04 | 75 | 1014.4 |
| 20260507014017 | 62 | 45 | 3.0 | 8.0 | 0.00 | 0.04 | 0.04 | 75 | 1014.2 |
| 20260507013017 | 62 | 45 | 3.0 | 5.0 | 0.00 | 0.04 | 0.04 | 75 | 1014.0 |
| 20260507012017 | 62 | 45 | 3.0 | 6.0 | 0.00 | 0.04 | 0.04 | 75 | 1013.7 |
| 20260507011017 | 63 | 45 | 3.0 | 5.0 | 0.00 | 0.04 | 0.04 | 75 | 1013.5 |
| 20260507010017 | 63 | 45 | 3.0 | 9.0 | 0.00 | 0.04 | 0.04 | 75 | 1013.4 |
| 20260507005037 | 63 | 23 | 2.0 | 4.0 | 0.00 | 0.04 | 0.04 | 75 | 1013.2 |
| 20260507004017 | 63 | 45 | 2.0 | 5.0 | 0.00 | 0.04 | 0.04 | 75 | 1013.1 |
| 20260507003017 | 63 | 68 | 3.0 | 6.0 | 0.00 | 0.04 | 0.04 | 74 | 1013.1 |
| 20260507002017 | 63 | 23 | 4.0 | 9.0 | 0.00 | 0.04 | 0.04 | 73 | 1013.0 |
| 20260507001017 | 64 | 45 | 4.0 | 9.0 | 0.00 | 0.04 | 0.04 | 73 | 1012.9 |
| 20260507000017 | 64 | 68 | 3.0 | 9.0 | 0.00 | 0.04 | 0.04 | 73 | 1012.7 |
| 20260506235017 | 65 | 23 | 4.0 | 10.0 | 0.00 | 0.04 | 0.04 | 71 | 1012.7 |
| 20260506234017 | 65 | 45 | 3.0 | 8.0 | 0.00 | 0.04 | 0.04 | 72 | 1012.7 |
| 20260506233017 | 65 | 45 | 3.0 | 8.0 | 0.00 | 0.04 | 0.04 | 72 | 1012.4 |
| 20260506232017 | 66 | 45 | 2.0 | 7.0 | 0.00 | 0.04 | 0.04 | 71 | 1012.3 |
| 20260506231017 | 66 | 23 | 4.0 | 7.0 | 0.00 | 0.04 | 0.04 | 70 | 1012.3 |
| 20260506230017 | 67 | 45 | 4.0 | 7.0 | 0.00 | 0.04 | 0.04 | 69 | 1012.4 |
| 20260506225017 | 67 | 68 | 3.0 | 6.0 | 0.00 | 0.04 | 0.04 | 69 | 1012.2 |
| 20260506224017 | 67 | 45 | 4.0 | 10.0 | 0.00 | 0.04 | 0.04 | 68 | 1012.1 |
| 20260506223017 | 67 | 45 | 5.0 | 9.0 | 0.00 | 0.04 | 0.04 | 68 | 1012.0 |
| 20260506222017 | 67 | 23 | 4.0 | 9.0 | 0.00 | 0.04 | 0.04 | 70 | 1012.0 |
| 20260506221017 | 67 | 45 | 4.0 | 8.0 | 0.00 | 0.04 | 0.04 | 70 | 1011.9 |
| 20260506220017 | 67 | 90 | 2.0 | 5.0 | 0.00 | 0.04 | 0.04 | 70 | 1012.3 |
| 20260506215017 | 66 | 23 | 2.0 | 6.0 | 0.00 | 0.04 | 0.04 | 71 | 1012.1 |
| 20260506214017 | 65 | 45 | 3.0 | 10.0 | 0.00 | 0.04 | 0.04 | 71 | 1012.1 |
| 20260506213017 | 64 | 23 | 2.0 | 6.0 | 0.00 | 0.04 | 0.04 | 74 | 1011.9 |
| 20260506212017 | 63 | 45 | 2.0 | 8.0 | 0.00 | 0.04 | 0.04 | 73 | 1012.2 |
| 20260506211017 | 63 | 45 | 1.0 | 4.0 | 0.00 | 0.04 | 0.04 | 74 | 1012.6 |
| 20260506210057 | 63 | 45 | 3.0 | 6.0 | 0.00 | 0.04 | 0.04 | 72 | 1012.3 |
| 20260506205017 | 63 | 45 | 2.0 | 4.0 | 0.00 | 0.04 | 0.04 | 74 | 1012.1 |
| 20260506204057 | 63 | 45 | 3.0 | 7.0 | 0.00 | 0.04 | 0.04 | 71 | 1012.3 |
| 20260506203037 | 64 | 90 | 2.0 | 4.0 | 0.00 | 0.04 | 0.04 | 72 | 1012.7 |
| 20260506202017 | 63 | 0 | 3.0 | 5.0 | 0.00 | 0.04 | 0.04 | 72 | 1012.8 |
| 20260506201017 | 63 | 45 | 2.0 | 5.0 | 0.00 | 0.04 | 0.04 | 72 | 1013.1 |
| 20260506200017 | 63 | 315 | 2.0 | 6.0 | 0.00 | 0.04 | 0.04 | 70 | 1013.0 |
| 20260506195017 | 62 | 68 | 2.0 | 6.0 | 0.00 | 0.04 | 0.04 | 75 | 1013.3 |
| 20260506194037 | 61 | 68 | 2.0 | 5.0 | 0.00 | 0.04 | 0.04 | 73 | 1013.6 |
| 20260506193017 | 61 | 45 | 2.0 | 6.0 | 0.00 | 0.04 | 0.04 | 75 | 1013.4 |
| 20260506192017 | 60 | 45 | 3.0 | 6.0 | 0.00 | 0.04 | 0.04 | 75 | 1013.6 |
| 20260506191037 | 60 | 45 | 3.0 | 9.0 | 0.00 | 0.04 | 0.04 | 74 | 1013.6 |
| 20260506190018 | 60 | 338 | 4.0 | 10.0 | 0.00 | 0.04 | 0.04 | 75 | 1013.7 |
| 20260506185037 | 60 | 45 | 4.0 | 10.0 | 0.00 | 0.04 | 0.04 | 74 | 1013.5 |
| 20260506184137 | 60 | 23 | 3.0 | 10.0 | 0.00 | 0.04 | 0.04 | 78 | 1012.6 |
| 20260506183017 | 59 | 45 | 4.0 | 11.0 | 0.00 | 0.04 | 0.04 | 77 | 1012.7 |
| 20260506182017 | 58 | 315 | 3.0 | 8.0 | 0.00 | 0.04 | 0.04 | 79 | 1012.3 |
| 20260506181017 | 58 | 45 | 5.0 | 11.0 | 0.00 | 0.04 | 0.04 | 79 | 1012.7 |
| 20260506180017 | 57 | 45 | 3.0 | 8.0 | 0.00 | 0.04 | 0.04 | 81 | 1012.9 |
| 20260506175017 | 56 | 45 | 4.0 | 9.0 | 0.00 | 0.04 | 0.04 | 82 | 1012.9 |
| 20260506174017 | 55 | 23 | 4.0 | 11.0 | 0.00 | 0.04 | 0.04 | 84 | 1012.7 |
| 20260506173017 | 55 | 45 | 3.0 | 7.0 | 0.00 | 0.04 | 0.04 | 84 | 1013.0 |
| 20260506172017 | 54 | 23 | 3.0 | 10.0 | 0.00 | 0.04 | 0.04 | 85 | 1012.6 |
| 20260506171514 | 54 | 45 | 5.0 | 9.0 | 0.00 | 0.04 | 0.04 | 85 | 1012.6 |
| 20260506171017 | 54 | 45 | 4.0 | 10.0 | 0.00 | 0.04 | 0.04 | 86 | 1012.8 |
| 20260506170017 | 54 | 45 | 4.0 | 9.0 | 0.00 | 0.04 | 0.04 | 86 | 1013.1 |
| 20260506165017 | 54 | 45 | 3.0 | 9.0 | 0.00 | 0.04 | 0.04 | 87 | 1013.2 |
| 20260506164017 | 54 | 45 | 3.0 | 5.0 | 0.00 | 0.04 | 0.04 | 87 | 1013.6 |
| 20260506163017 | 54 | 45 | 2.0 | 5.0 | 0.00 | 0.04 | 0.04 | 87 | 1013.4 |
| 20260506162037 | 54 | 45 | 3.0 | 8.0 | 0.02 | 0.04 | 0.04 | 88 | 1013.1 |
| 20260506161017 | 54 | 315 | 4.0 | 9.0 | 0.03 | 0.04 | 0.04 | 88 | 1012.3 |
| 20260506160017 | 54 | 315 | 4.0 | 11.0 | 0.04 | 0.04 | 0.04 | 88 | 1012.8 |
| 20260506155017 | 54 | 338 | 2.0 | 5.0 | 0.04 | 0.04 | 0.04 | 89 | 1013.1 |
| 20260506154017 | 53 | 23 | 2.0 | 5.0 | 0.04 | 0.04 | 0.04 | 89 | 1013.0 |
| 20260506153017 | 53 | 23 | 1.0 | 4.0 | 0.04 | 0.04 | 0.04 | 89 | 1012.9 |
| 20260506152017 | 53 | 315 | 2.0 | 5.0 | 0.02 | 0.02 | 0.02 | 87 | 1013.4 |
| 20260506151017 | 53 | 0.0 | 2.0 | 0.01 | 0.01 | 0.01 | 86 | 1015.0 | |
| 20260506150017 | 53 | 0 | 2.0 | 5.0 | 0.00 | 0.00 | 0.00 | 86 | 1014.7 |
| 20260506145017 | 53 | 0 | 1.0 | 4.0 | 0.00 | 0.00 | 0.00 | 85 | 1014.4 |
| 20260506144017 | 53 | 23 | 2.0 | 8.0 | 0.00 | 0.00 | 0.00 | 85 | 1013.3 |
| 20260506143037 | 53 | 23 | 3.0 | 9.0 | 0.00 | 0.00 | 0.00 | 83 | 1012.9 |